Location: Newark
(50.2575°N, 28.6575°E)
Time: 02:59:33
(UTC+00:00)

N. Korean satellite - Visible Passes

Search period start: 19 September 2020 00:00
Search period end: 29 September 2020 00:00
Orbit: 455 x 503 km, 97.2° (Epoch: 18 September)

Date Brightness Start Highest point End Pass type
(mag) Time Alt. Az. Time Alt. Az. Time Alt. Az.
20 Sep 9.7 02:49:07 10° NE 02:51:45 18° E 02:54:21 10° SE visible
23 Sep 9.2 03:04:03 10° NE 03:07:12 26° E 03:10:17 10° SSE visible
24 Sep 9.9 02:38:55 10° NE 02:40:58 14° E 02:42:59 10° ESE visible
26 Sep 8.4 03:19:08 10° NNE 03:22:35 38° E 03:25:58 10° SSE visible
27 Sep 9.6 02:53:37 10° NE 02:56:24 20° E 02:59:08 10° SE visible
28 Sep 10.3 02:29:08 10° ENE 02:30:06 11° E 02:31:04 10° ESE visible
